GFSSW_925_spd_162.txt.gz
Wind_Speed
18 17 22 19 17 18 17 13 11 12 11 10 8 5 4 5 5 5 5 3 2 4 4 4 5 7 4 3 4 1 2 5 5 7 5 3 3 2 1 2 2 3 3 3 2
20 18 19 22 19 19 18 16 12 11 11 11 10 7 4 3 2 9 8 4 6 2 2 2 1 5 2 1 2 1 3 3 2 4 6 4 2 3 3 5 3 3 3 4 5
19 19 18 17 22 19 20 17 14 12 10 10 11 9 6 4 3 4 3 14 10 4 1 1 2 1 3 1 1 2 3 6 5 4 3 3 3 1 2 3 2 4 4 3 2
20 18 19 17 17 21 19 17 15 12 10 9 10 10 8 6 6 2 1 7 10 15 4 3 3 5 5 6 2 5 4 5 6 4 3 3 2 2 3 2 2 2 3 3 1
21 19 18 18 17 17 21 19 17 14 11 9 9 11 8 5 5 3 4 8 9 12 11 8 8 5 8 5 4 6 5 4 4 4 3 3 5 3 6 5 1 3 4 3 3
18 21 19 20 18 18 16 17 19 16 13 11 10 13 6 11 5 5 1 3 4 12 10 6 6 3 4 5 9 4 4 2 1 4 3 5 4 5 5 3 3 3 4 3 4
16 18 21 20 19 20 19 17 17 18 15 14 12 11 7 12 3 2 4 2 5 8 10 4 4 5 7 6 4 5 7 1 5 5 5 4 11 11 10 5 7 4 4 4 9
15 13 16 22 21 20 19 17 17 18 17 15 12 8 5 8 12 4 2 5 8 8 7 7 4 5 1 7 4 5 3 7 7 8 4 6 12 2 7 8 8 7 7 8 12
13 13 13 17 21 20 19 16 16 16 17 14 12 7 5 2 7 18 6 6 11 10 9 9 4 5 4 9 4 6 4 11 3 7 4 12 7 5 6 5 8 11 12 12 14
18 15 15 12 18 20 19 15 12 15 17 14 8 2 4 5 5 8 13 7 6 14 6 7 6 9 10 11 9 10 7 6 7 7 7 9 15 8 10 11 14 14 13 15 15
21 19 16 14 13 23 21 15 9 5 9 5 7 4 6 6 8 7 15 7 6 11 10 14 10 15 18 18 5 7 8 7 5 5 5 13 14 15 13 13 15 16 16 16 15
24 24 20 14 16 23 27 13 22 7 6 11 18 3 3 8 4 6 13 11 9 12 11 7 18 14 12 14 14 7 7 6 2 4 4 9 14 15 19 15 18 18 17 14 8
23 24 22 19 14 18 29 30 18 15 4 6 6 12 4 6 4 15 20 9 12 17 15 15 2 17 13 11 14 14 14 11 8 3 6 10 14 9 8 8 12 14 12 6 2
25 25 23 19 14 18 14 30 15 12 5 9 10 6 6 5 4 9 23 11 5 18 15 13 7 13 14 16 14 16 10 7 5 3 4 4 7 8 8 12 8 8 10 5 6
26 25 26 27 9 10 8 30 13 6 9 14 10 11 14 12 14 8 19 7 11 11 9 7 11 11 15 14 13 6 11 11 8 8 9 12 4 5 4 14 16 14 5 7 7
28 26 26 26 18 13 18 28 14 9 10 10 11 17 15 18 7 7 9 6 2 8 5 12 0 9 14 6 15 10 8 4 2 2 8 14 11 9 12 12 12 11 7 10 8
29 28 28 25 11 20 11 16 8 9 6 10 11 18 27 13 14 13 18 17 14 10 16 9 13 3 3 10 5 14 14 4 6 6 8 0 13 18 7 13 13 10 11 10 8
27 25 23 24 21 24 13 10 14 6 9 9 12 21 22 18 12 15 19 17 20 13 10 12 8 15 11 14 9 18 14 6 7 7 5 3 11 6 12 13 3 3 13 11 9
24 21 19 22 22 17 2 7 8 5 11 15 16 23 11 14 10 16 23 24 22 21 13 12 14 4 11 7 16 8 13 13 1 2 3 7 8 10 10 12 11 11 13 11 9
24 15 10 21 19 14 3 4 3 2 12 20 13 16 12 21 15 21 18 20 20 23 8 6 4 2 13 6 10 10 10 5 6 8 9 11 15 13 10 16 17 12 13 11 9
17 5 3 16 14 0 2 5 2 5 7 18 14 7 16 13 18 16 13 7 26 22 17 7 3 3 7 15 20 8 12 7 5 9 9 8 9 10 18 16 16 15 17 15 12
7 3 10 23 6 2 6 4 5 2 6 8 8 9 15 19 16 18 21 20 21 18 22 15 6 9 13 1 9 19 17 19 9 9 11 12 15 7 7 11 12 14 16 14 12
5 3 8 15 6 6 3 1 4 5 7 5 11 9 12 17 12 18 17 12 13 20 17 15 7 5 5 5 2 11 17 18 18 4 14 11 14 8 11 11 11 16 16 14 12
4 4 2 5 1 9 10 6 3 6 7 6 3 5 14 16 9 17 16 7 10 20 10 19 10 14 17 15 11 10 17 20 18 8 20 18 27 22 10 10 11 14 15 15 13
2 3 3 6 10 11 14 11 16 7 9 6 4 8 15 11 16 10 18 9 6 10 14 12 8 17 21 17 9 18 21 20 22 28 19 24 25 26 21 16 15 17 15 16 15
4 3 2 0 4 15 15 16 20 17 3 5 10 18 17 10 15 15 18 12 12 9 17 9 7 10 15 20 20 17 13 20 28 27 24 29 26 23 19 16 16 18 20 18 16
3 3 2 4 5 11 18 20 22 18 8 7 10 12 14 14 18 10 11 8 7 15 18 13 11 7 15 17 17 13 25 25 21 25 25 25 31 27 24 15 17 18 20 22 18

GFSSW_925_spd_165.txt.gz
Wind_Speed
19 17 23 20 19 18 17 13 13 13 12 11 9 7 7 6 6 7 10 3 3 7 8 10 6 5 2 3 3 3 4 6 5 5 7 6 5 2 1 4 4 3 8 6 7
22 20 18 21 21 18 18 17 13 12 13 12 10 7 5 3 4 10 8 6 5 5 6 7 5 6 2 1 1 3 5 4 3 3 7 6 3 5 5 7 7 9 9 7 7
22 21 20 19 22 21 19 18 15 12 11 12 12 9 5 2 4 3 5 12 11 3 4 6 5 5 5 2 3 2 6 4 4 2 4 6 7 3 4 6 5 8 8 7 5
22 22 21 20 19 23 21 19 16 14 10 10 12 11 8 5 7 2 1 6 10 11 5 4 5 5 6 7 5 6 2 5 5 4 3 6 2 6 5 2 5 4 3 1 3
21 22 20 21 18 21 23 19 17 14 12 10 10 12 9 7 8 2 2 7 4 9 9 8 9 9 9 8 6 9 8 4 4 4 5 1 7 8 8 7 4 3 3 6 5
20 22 20 20 19 18 24 20 19 16 13 11 10 14 9 13 3 3 0 4 1 10 12 11 5 7 8 7 11 4 6 8 7 8 5 7 11 3 10 10 11 8 8 6 7
19 20 21 20 20 18 18 19 22 18 15 12 12 12 9 8 4 3 4 2 1 6 10 10 4 7 4 4 1 4 9 9 10 10 9 6 16 17 15 8 10 11 10 9 12
17 19 19 20 21 20 18 19 16 20 17 14 12 9 5 7 6 3 3 6 4 5 7 7 3 4 6 7 4 8 9 13 10 13 6 7 18 9 13 14 15 15 10 10 12
17 16 19 18 21 21 20 16 14 16 17 14 10 8 4 3 6 13 5 9 8 7 7 5 6 7 5 9 7 9 8 15 10 9 12 12 12 13 6 9 12 12 13 13 13
19 14 14 16 20 22 21 16 14 12 17 16 3 3 4 5 7 10 11 6 9 13 7 7 6 9 10 11 10 12 15 11 16 7 14 14 19 8 7 9 11 13 14 15 15
23 19 13 16 13 22 21 13 8 5 9 5 11 4 4 5 6 13 14 10 10 14 11 14 10 15 17 17 15 6 13 12 11 6 8 15 18 16 14 16 18 16 17 17 17
25 21 17 13 10 18 25 11 20 8 4 9 16 5 6 5 4 8 15 11 11 13 14 8 17 15 14 16 16 11 11 12 3 6 9 13 18 18 18 19 19 20 19 18 15
29 27 25 19 14 15 27 29 10 12 4 4 4 13 4 8 4 15 16 11 13 17 17 15 3 18 15 15 17 17 15 12 8 7 12 14 21 24 22 23 20 20 18 14 8
26 26 24 19 13 11 5 19 15 10 5 9 11 7 7 6 6 15 21 11 7 17 15 13 17 8 18 18 16 17 16 14 13 7 7 5 7 6 8 10 11 12 13 12 10
24 23 24 26 10 11 9 13 12 5 11 17 11 11 14 15 12 11 25 10 13 12 15 8 11 14 16 18 16 12 4 11 11 12 11 14 7 5 10 15 18 16 12 9 9
26 23 22 23 14 9 12 15 15 9 12 9 13 19 19 20 11 9 17 7 5 12 16 16 1 9 15 8 10 9 7 5 5 7 9 15 12 9 12 13 3 7 12 9 10
28 25 23 20 18 13 12 5 6 10 9 9 11 21 28 16 16 13 18 16 11 8 15 15 11 4 4 11 8 11 9 4 5 6 8 0 12 15 6 4 9 6 9 12 11
27 23 21 19 14 17 7 2 12 7 6 10 14 21 26 22 18 20 19 16 22 18 10 14 9 19 13 14 8 20 15 6 6 6 5 7 10 4 5 13 10 9 11 11 11
26 21 15 18 18 18 4 10 4 1 10 12 16 17 15 17 13 17 24 24 24 24 14 15 13 10 13 14 15 11 17 15 5 3 4 8 10 13 10 11 12 8 11 13 12
21 15 12 15 14 11 3 6 3 6 6 18 13 17 18 20 18 19 19 20 24 25 18 5 5 2 11 11 13 10 8 8 4 6 9 12 16 13 7 14 15 13 13 13 13
16 4 8 17 13 1 2 4 3 3 7 9 18 12 18 15 21 18 17 12 27 24 19 9 6 3 11 14 17 11 9 9 7 8 9 12 12 10 15 16 17 17 15 14 14
7 4 9 26 3 1 0 1 6 4 3 5 7 13 23 23 19 19 25 23 19 22 27 20 6 10 14 2 16 17 16 18 8 13 11 16 20 4 2 8 11 14 15 17 14
4 3 7 17 4 3 1 4 2 5 1 6 6 12 18 22 14 18 21 19 12 22 18 15 6 5 3 5 5 11 15 18 20 13 14 12 16 13 17 9 10 11 12 12 13
3 4 2 2 1 6 9 5 6 4 4 4 7 7 13 18 18 21 20 11 13 20 13 16 11 16 17 17 10 11 17 21 18 9 20 19 27 21 13 10 13 13 12 15 14
2 2 0 5 6 5 9 6 12 7 6 9 5 5 8 17 22 15 22 13 10 13 17 12 8 20 22 21 14 13 17 18 22 26 19 24 24 27 20 17 16 13 15 15 18
3 3 1 0 6 16 14 14 16 16 11 8 11 12 11 7 20 17 22 18 14 15 19 10 9 14 17 20 19 21 16 16 24 26 24 27 27 28 22 18 16 18 16 16 16
3 2 1 5 4 10 14 16 20 19 11 16 15 6 10 18 18 14 14 12 4 14 18 13 10 6 13 16 17 16 22 25 22 22 25 23 29 25 27 24 21 17 14 18 19

GFSSW_925_spd_168.txt.gz
Wind_Speed
16 15 22 20 18 17 15 14 14 14 11 11 9 7 6 8 8 8 7 3 5 9 11 15 13 11 12 2 3 4 2 3 1 3 8 6 5 2 2 6 7 6 8 11 14
18 18 16 20 20 18 17 14 12 12 12 11 9 7 5 4 7 11 7 7 9 7 10 10 9 13 4 1 2 2 2 4 7 8 8 6 2 7 4 7 8 8 9 13 12
19 21 20 17 20 20 18 16 14 12 10 11 10 8 4 1 5 1 3 10 12 5 5 8 9 7 7 3 3 2 2 5 4 7 6 6 4 1 5 5 11 12 9 10 10
17 20 21 21 18 21 20 18 17 14 11 11 11 9 6 2 6 2 1 3 7 11 4 5 4 3 3 5 3 3 2 4 6 3 2 4 4 3 4 4 8 9 9 10 8
17 18 21 20 20 19 22 19 18 15 12 11 11 12 7 5 5 1 2 5 1 6 4 5 6 6 6 4 3 5 4 4 6 4 3 6 1 5 4 5 5 9 4 4 3
16 17 18 20 21 19 20 22 20 17 14 12 11 14 3 9 3 3 2 5 1 7 8 6 2 7 5 7 4 6 8 6 3 4 1 1 5 5 6 9 8 7 8 7 4
17 16 18 19 19 19 20 22 21 17 15 13 13 14 7 7 3 3 5 1 2 3 7 9 6 4 3 4 4 4 5 0 3 6 4 2 6 10 8 6 4 7 6 7 7
16 16 17 19 19 19 17 18 21 18 16 14 13 11 5 7 6 3 5 5 1 1 1 5 1 6 3 4 3 2 5 6 8 9 3 7 5 10 14 10 10 9 8 8 7
16 16 16 17 18 18 18 16 16 19 18 16 11 9 4 5 8 9 6 10 7 5 4 6 3 1 2 4 3 4 3 9 8 14 7 8 5 10 6 2 6 6 8 7 7
17 18 14 16 14 17 18 15 12 9 21 15 3 4 6 5 9 14 9 8 8 10 4 4 3 4 5 6 6 7 9 7 9 6 3 8 9 12 1 4 7 8 8 7 7
20 18 14 17 21 17 19 11 5 4 5 3 9 2 5 8 9 11 15 6 9 9 6 8 4 11 14 11 10 2 4 10 8 5 4 9 12 10 9 9 9 8 8 8 8
23 23 15 13 17 17 20 7 11 6 3 4 10 5 6 6 4 9 16 8 7 10 10 6 13 12 10 10 10 8 6 8 2 4 1 8 13 11 9 9 9 11 11 9 8
23 25 22 10 9 16 9 24 9 9 4 4 3 9 4 5 4 13 13 6 9 12 14 8 3 16 14 9 11 10 8 7 6 3 4 8 12 16 13 16 11 12 12 9 9
24 28 21 16 5 7 11 18 16 1 3 6 9 6 6 6 5 17 17 6 6 14 14 11 9 16 11 13 10 12 8 8 7 4 3 9 6 9 6 14 14 15 11 10 9
27 29 25 23 4 6 10 11 7 3 6 14 10 12 12 9 11 10 19 6 8 7 7 4 8 9 11 10 9 5 5 9 9 5 6 10 8 4 7 6 9 10 9 9 9
28 25 25 23 18 8 13 14 8 5 8 10 10 17 15 14 7 7 8 6 3 7 7 9 2 3 7 6 7 5 4 3 3 3 8 9 8 5 8 9 6 4 9 9 11
28 25 26 20 16 11 14 8 4 9 8 7 9 17 22 15 14 9 13 12 9 6 11 9 7 4 1 7 4 10 9 3 3 4 6 5 11 13 14 5 4 7 7 10 11
26 22 21 18 14 15 9 1 6 3 9 5 11 17 21 16 14 14 16 14 16 9 9 9 7 11 7 7 5 13 10 4 6 4 3 8 7 5 2 5 6 4 9 9 9
25 18 11 12 11 16 2 5 3 1 3 6 10 14 13 18 9 15 19 21 18 19 8 10 7 11 16 7 10 6 11 6 4 3 2 5 5 8 5 6 2 6 8 9 8
21 11 7 13 16 11 1 6 1 2 6 8 12 9 17 20 15 17 18 17 15 20 11 2 3 4 6 8 9 7 5 6 6 4 5 6 6 8 4 9 9 8 9 10 9
16 4 11 20 16 3 3 2 2 3 4 4 6 7 16 15 21 16 14 10 26 20 18 2 3 1 6 9 14 10 5 5 5 5 4 2 5 7 3 3 13 10 11 10 10
6 4 13 21 3 1 1 3 1 3 2 1 5 5 11 21 17 17 19 18 13 17 25 15 5 4 8 1 9 16 13 11 5 6 4 7 14 5 1 3 3 8 11 11 13
3 2 14 9 4 4 2 2 3 1 3 3 1 6 8 13 14 24 17 10 8 22 17 15 5 5 3 4 4 7 13 17 15 6 10 8 15 6 10 12 7 6 2 8 10
4 3 2 1 1 3 4 3 4 6 3 5 2 5 4 6 18 19 20 9 9 11 10 18 5 13 15 9 8 7 13 19 16 8 14 14 27 16 9 9 4 5 6 7 10
3 2 0 4 3 3 5 4 7 5 6 8 5 7 2 4 10 10 23 11 7 10 13 10 9 13 17 11 5 7 11 16 18 23 14 22 21 25 16 10 9 9 9 7 11
2 2 1 1 5 8 6 3 9 6 7 5 8 11 7 5 5 12 10 13 10 7 14 11 7 8 12 15 15 14 11 11 23 23 17 24 22 22 17 14 13 12 7 9 12
2 2 1 6 2 4 8 7 7 10 7 15 13 7 9 16 10 9 14 18 8 12 14 13 8 6 12 13 8 11 22 19 15 16 19 17 25 22 24 19 17 13 11 17 11

GFSSW_925_spd_171.txt.gz
Wind_Speed
14 14 14 20 17 15 14 13 13 12 11 10 7 6 6 7 9 6 2 4 5 10 12 14 14 22 14 4 5 4 4 2 2 6 6 4 4 3 3 7 5 4 4 13 19
13 14 13 14 20 17 15 12 12 12 11 10 7 6 5 4 5 8 7 9 7 9 7 13 8 18 5 4 5 4 3 1 3 4 6 7 5 7 5 5 5 6 10 18 18
14 14 15 15 14 20 16 15 13 10 10 11 10 7 4 1 2 3 9 13 13 7 3 6 8 5 4 4 4 4 1 0 4 6 5 7 4 3 8 3 8 10 10 13 14
13 14 17 15 15 15 19 17 15 12 10 10 11 9 5 1 5 1 2 5 8 9 4 4 2 2 2 2 2 3 6 4 1 5 4 5 6 2 3 3 9 13 16 13 8
16 14 14 20 16 15 18 19 17 15 11 9 9 9 6 2 4 3 2 2 2 6 5 2 1 1 2 3 3 2 2 4 4 7 4 3 4 4 5 7 11 11 10 10 11
16 14 13 15 16 19 16 19 17 17 13 10 9 12 2 5 5 5 5 5 3 6 6 4 1 1 3 3 1 1 3 2 4 4 3 3 3 2 6 6 8 11 9 6 6
15 14 13 14 16 17 17 16 20 18 15 12 11 13 3 8 4 9 6 3 4 1 4 8 2 2 3 1 5 2 3 2 1 2 2 4 5 8 6 3 7 8 9 8 10
17 13 14 15 17 15 16 16 20 18 16 13 11 9 5 8 9 6 9 4 3 2 2 6 3 1 1 1 4 3 4 1 4 6 3 6 6 8 9 7 9 9 8 8 7
18 15 16 13 16 16 14 14 15 17 15 13 10 6 5 8 12 10 7 6 5 5 6 7 3 2 3 5 3 3 2 5 5 8 5 6 4 6 7 8 10 9 8 7 6
17 15 14 15 16 17 14 11 11 17 18 15 2 2 4 5 9 15 10 9 5 6 4 2 2 3 2 4 7 7 4 3 5 4 7 5 6 8 7 5 6 6 7 6 6
17 17 16 14 21 17 17 10 6 4 6 4 11 4 6 7 12 14 12 8 5 4 5 3 4 9 14 10 5 6 4 4 5 5 3 5 6 10 9 5 9 9 8 7 7
19 18 15 18 17 17 20 4 5 2 5 2 10 3 8 9 3 6 14 6 5 7 6 3 8 6 7 6 7 5 3 4 5 2 2 4 9 11 7 8 10 10 10 10 5
21 20 19 13 15 17 8 15 5 2 3 4 5 4 4 5 4 11 13 3 4 10 9 7 4 12 8 7 10 6 6 4 5 2 2 4 8 9 9 15 10 11 10 9 11
20 21 22 15 8 9 8 15 4 3 3 8 7 6 4 5 3 16 16 4 5 11 8 7 7 15 6 11 7 10 6 4 3 4 2 3 6 6 7 9 10 18 13 11 9
21 21 24 21 15 6 4 18 8 4 7 13 9 10 9 7 10 7 15 2 6 6 6 7 9 11 13 5 7 3 5 7 4 2 2 2 4 6 3 5 8 12 10 9 9
22 22 26 18 7 5 5 12 6 6 8 7 10 16 13 6 5 5 4 2 2 2 2 5 1 4 8 6 7 8 5 3 3 2 7 8 8 4 6 9 5 4 7 8 9
25 24 27 20 6 10 14 6 1 5 5 7 7 15 19 11 6 6 12 9 7 6 6 3 4 4 4 6 4 7 8 1 1 4 6 4 9 13 6 7 4 9 7 8 12
26 23 23 18 12 16 16 1 6 3 3 4 7 16 16 12 7 6 15 14 10 3 6 8 4 9 5 7 7 13 11 5 7 5 3 4 8 6 8 9 8 7 9 10 9
28 22 18 14 15 15 3 3 3 2 5 3 9 11 8 11 7 7 14 17 15 16 7 8 5 5 7 5 11 6 9 5 2 3 2 4 6 8 8 5 4 7 9 10 11
22 18 9 14 16 11 2 2 1 3 3 6 3 7 13 16 8 17 14 14 7 16 4 5 3 1 7 4 4 6 7 4 3 3 4 5 5 7 2 8 6 7 13 12 10
22 4 9 17 18 3 1 2 2 4 1 1 5 3 10 10 18 14 12 8 24 17 15 4 4 2 6 7 14 6 4 5 4 5 5 2 6 8 17 6 8 9 9 10 12
6 4 16 17 3 1 3 3 4 3 2 3 4 2 4 10 16 14 17 14 16 17 22 12 4 5 9 3 4 18 12 11 6 5 5 1 7 3 9 5 7 8 9 12 13
3 4 3 4 3 1 2 2 2 3 2 3 2 4 4 3 6 20 7 9 9 20 13 12 6 3 1 4 3 6 13 12 10 3 6 4 11 6 10 6 5 5 8 9 9
4 3 2 2 1 6 4 3 3 2 2 3 2 3 2 1 4 6 17 6 9 16 11 17 4 16 17 11 8 9 13 19 16 7 11 15 26 17 9 8 6 5 6 8 12
3 2 2 4 2 2 2 4 3 2 3 4 2 5 5 4 5 9 7 11 7 7 14 13 12 11 15 3 8 10 15 17 20 24 11 23 21 23 16 8 10 10 7 4 9
3 4 2 1 3 4 1 3 4 4 4 5 6 1 5 5 8 7 3 4 7 9 12 9 6 8 14 10 9 4 10 18 23 23 18 24 21 20 10 4 4 7 6 8 10
3 3 4 1 2 4 4 6 5 6 7 8 7 1 8 14 8 9 13 10 7 7 14 13 9 6 14 7 5 7 21 16 13 20 18 19 26 23 20 14 13 10 10 15 9

GFSSW_925_spd_174.txt.gz
Wind_Speed
11 11 11 14 17 14 13 13 13 11 10 10 10 7 6 7 5 1 3 4 4 9 12 16 14 21 9 6 5 2 4 1 3 6 5 4 5 2 3 6 3 4 5 9 23
12 11 11 11 16 17 15 14 13 13 12 11 9 6 6 6 5 5 6 8 7 9 8 11 7 14 5 5 4 4 3 2 2 5 6 6 6 8 5 4 5 5 7 22 21
13 12 11 14 11 17 16 15 12 11 11 10 8 7 5 2 2 4 8 12 10 8 5 5 7 3 3 3 4 1 2 4 5 2 4 7 4 3 10 2 7 12 10 13 16
13 13 12 13 15 12 19 17 15 11 10 9 10 9 5 3 7 1 3 3 5 7 6 2 2 2 1 2 4 2 3 3 5 6 4 5 4 4 4 6 9 13 17 14 10
17 15 12 13 17 14 13 19 16 14 11 9 9 9 5 2 5 3 2 1 3 5 7 3 3 2 2 2 3 2 2 4 3 7 5 3 4 0 5 1 8 11 10 11 12
18 15 12 12 15 17 15 16 18 15 13 10 8 10 3 4 4 7 5 2 3 6 5 4 3 3 2 1 1 1 2 4 1 2 3 4 3 3 3 3 9 10 10 9 11
18 15 15 11 14 17 15 15 19 17 15 11 9 10 0 8 3 8 7 4 4 3 4 5 1 2 2 2 2 1 1 3 2 2 1 4 5 6 4 2 5 8 9 9 12
17 16 13 12 11 18 18 16 14 19 15 11 9 7 4 7 6 7 8 4 4 3 2 5 2 2 3 2 5 3 5 2 3 6 3 6 7 8 2 5 8 9 8 7 8
18 16 13 12 13 15 14 13 14 16 13 12 8 5 5 3 10 12 9 5 4 4 5 7 4 2 3 6 3 5 3 3 6 7 3 4 6 8 0 6 8 8 8 8 8
18 15 14 14 10 14 11 11 16 18 14 12 3 1 3 5 6 13 9 8 3 4 4 4 4 3 2 3 8 7 6 4 6 1 4 6 8 7 5 1 6 6 8 8 8
17 15 14 12 13 15 17 14 5 4 9 4 8 3 4 4 12 10 9 6 4 3 5 3 4 9 15 14 3 5 4 5 3 5 3 8 7 11 8 3 7 8 8 7 9
17 16 15 14 17 15 23 5 5 1 2 5 7 4 3 8 4 5 14 6 6 7 6 3 8 6 5 3 4 4 4 3 4 3 5 3 7 8 7 6 7 9 9 10 5
18 17 15 14 13 17 16 8 3 6 1 7 4 8 3 4 4 8 12 5 4 6 9 6 4 11 8 5 7 4 5 4 4 4 4 6 6 7 8 6 10 14 13 11 13
17 17 15 16 10 15 5 6 6 8 3 7 12 6 3 4 2 8 14 3 4 11 6 4 2 11 6 8 7 6 6 5 3 2 4 1 6 6 6 8 6 14 15 17 10
18 18 19 15 11 2 7 10 2 5 5 13 8 8 5 6 7 4 8 2 6 6 6 6 7 8 10 6 7 5 6 7 4 3 0 3 4 6 4 6 11 10 12 15 14
20 19 22 11 11 6 14 13 6 1 6 6 8 11 7 5 3 4 4 2 2 3 3 5 1 7 9 6 10 7 6 5 4 2 6 8 8 5 6 11 5 7 8 8 8
21 21 26 15 7 17 13 7 3 3 5 7 7 14 17 9 6 5 11 9 6 6 9 4 3 2 3 5 3 5 8 1 1 4 7 2 8 12 7 9 7 8 8 7 8
23 25 22 10 14 18 13 3 3 2 4 6 8 16 14 11 7 6 12 13 8 2 5 7 5 8 6 7 8 11 10 5 8 5 4 2 7 6 10 9 9 10 6 5 7
27 23 19 13 16 19 5 3 3 3 1 7 14 11 7 10 7 9 14 16 15 13 8 8 6 2 5 4 10 5 9 5 4 2 2 4 6 8 9 9 5 3 5 8 10
19 15 6 16 16 10 2 4 2 2 2 3 4 4 7 15 9 14 14 14 6 16 3 7 2 3 6 4 2 7 8 3 2 2 4 5 5 7 2 10 5 5 8 8 6
21 4 6 19 15 3 2 1 3 1 2 3 4 3 2 4 7 9 12 7 19 14 11 4 3 1 5 9 14 5 7 5 5 5 5 2 6 7 13 6 8 7 7 7 8
6 4 11 11 3 2 2 2 2 3 2 2 3 3 3 4 5 10 14 9 12 11 17 8 4 5 6 1 3 16 10 15 6 5 4 2 14 3 6 8 4 5 7 8 8
3 3 9 3 3 1 1 1 1 3 2 1 1 1 2 2 5 8 6 5 5 16 9 10 6 2 2 4 3 6 11 9 6 3 15 6 12 7 8 7 3 2 4 6 8
4 3 3 2 2 6 3 3 1 2 1 3 2 1 2 2 6 4 9 9 6 11 14 11 5 16 17 10 7 8 14 17 14 6 11 17 18 6 6 6 1 3 4 1 7
3 1 1 3 2 2 2 4 2 1 1 3 1 5 3 0 3 5 3 3 9 10 10 7 8 10 21 6 9 15 16 16 18 26 12 24 22 21 17 6 8 8 6 6 9
4 4 2 1 2 4 4 3 5 3 6 4 4 6 6 7 6 4 4 3 5 5 8 4 7 8 11 9 7 6 16 23 27 26 19 23 22 12 4 6 5 8 7 8 9
3 3 4 2 1 4 4 6 4 2 4 5 6 4 9 8 8 9 9 6 5 5 3 2 5 7 14 8 6 8 21 20 20 23 25 20 27 24 19 10 11 9 12 16 12

GFSSW_925_spd_180.txt.gz
Wind_Speed
12 11 12 12 12 12 11 14 16 14 13 4 7 5 4 6 8 6 4 4 4 11 14 13 12 24 7 4 5 2 4 3 7 7 5 6 5 0 2 6 1 1 6 4 24
13 12 12 12 11 10 15 14 12 10 11 9 8 5 5 5 6 9 8 8 9 9 10 16 7 15 5 5 5 4 3 6 4 3 5 6 5 9 5 4 1 0 2 16 25
13 13 12 12 10 9 14 12 11 10 10 9 9 7 4 1 3 6 9 13 10 7 4 4 7 6 4 2 4 2 3 5 2 3 4 7 3 1 8 3 6 9 8 12 15
15 15 13 12 9 9 10 14 12 10 11 13 11 7 5 6 7 3 3 4 8 8 3 2 2 4 3 3 4 2 3 1 0 1 5 8 7 4 2 2 6 7 16 16 11
16 16 16 14 11 9 11 10 13 11 10 9 9 7 5 2 6 1 1 1 1 3 4 3 4 2 1 3 3 2 4 4 3 5 5 7 4 4 4 4 3 10 8 11 11
17 17 16 15 12 10 11 11 13 12 10 9 7 7 3 4 3 4 2 2 2 4 3 2 4 4 3 2 2 1 3 3 5 4 2 5 2 6 3 2 6 9 9 8 9
15 18 16 14 12 11 11 12 9 13 12 9 7 8 1 8 1 4 3 3 2 2 3 2 3 2 4 4 1 2 2 3 3 4 3 0 1 5 3 4 8 9 7 7 10
16 18 15 12 12 11 11 13 10 11 13 10 9 5 5 6 8 5 3 2 3 3 2 5 3 4 4 3 6 4 5 2 3 2 2 3 6 4 3 5 8 8 7 7 9
15 17 15 12 11 10 10 13 11 10 15 13 9 3 5 2 7 7 6 3 4 4 4 5 3 3 4 6 3 6 3 2 7 3 1 3 6 5 1 3 6 7 7 7 7
13 17 15 12 10 9 9 11 10 9 19 14 6 2 3 5 5 11 7 5 3 4 4 5 5 3 3 3 6 5 5 4 5 2 3 1 7 6 2 4 9 7 8 8 8
11 15 13 11 10 8 9 6 4 5 3 5 8 3 2 3 7 8 7 7 3 5 5 2 3 7 8 7 2 6 4 4 2 2 1 6 6 12 5 4 7 9 8 8 10
11 12 11 8 9 9 14 3 6 3 2 0 2 1 3 2 4 2 11 5 5 4 4 4 8 3 5 5 4 4 4 4 2 2 1 4 9 10 5 7 9 11 9 10 7
14 12 11 7 6 7 7 4 3 10 4 1 5 2 3 4 1 7 8 5 3 5 4 4 1 8 6 4 6 3 5 4 3 3 2 5 7 7 8 4 7 8 10 10 14
15 12 10 8 5 4 3 6 4 7 3 5 3 6 3 6 1 3 9 5 2 6 4 3 1 6 2 5 6 4 5 5 5 4 4 2 6 5 7 9 7 11 11 15 15
14 13 11 9 7 4 5 6 5 3 2 7 5 2 4 6 6 1 3 4 8 6 6 5 5 5 3 4 7 5 6 7 4 3 2 0 3 6 2 7 13 10 11 14 10
16 15 16 9 8 9 7 5 7 1 4 5 3 7 6 2 3 3 2 4 4 4 2 4 1 4 6 3 7 8 7 7 5 3 3 7 7 5 5 7 6 6 8 7 8
17 16 16 6 7 14 10 6 2 3 1 3 2 6 9 5 5 4 10 7 7 6 6 2 3 2 4 6 1 3 7 2 3 0 7 1 4 11 6 10 10 11 9 5 6
20 20 11 6 20 14 6 4 1 1 3 1 3 7 9 5 2 3 10 8 6 2 5 7 4 8 5 5 6 5 6 5 7 5 3 2 7 6 8 9 9 8 8 8 8
26 19 10 17 14 10 4 4 0 2 2 5 3 0 4 3 3 4 8 9 10 7 5 5 4 1 4 5 8 5 6 5 5 3 3 4 7 9 11 12 6 8 7 8 8
22 9 6 12 5 4 4 3 2 3 3 3 7 5 6 4 2 5 10 7 4 8 1 2 2 2 4 3 2 6 8 3 2 1 4 5 5 7 5 6 9 7 7 8 6
15 3 5 7 7 5 3 2 4 3 2 4 3 3 4 5 5 3 7 3 4 2 6 1 1 1 4 7 9 4 4 4 5 5 5 2 6 7 7 7 8 7 8 6 7
4 3 8 3 4 2 3 2 1 2 2 4 2 2 2 3 3 5 4 7 14 5 6 6 1 4 6 0 2 4 5 11 4 5 3 2 9 4 6 5 4 6 6 5 5
3 2 5 1 3 2 2 3 2 1 4 3 2 1 1 3 4 6 4 5 8 10 6 8 4 3 1 2 2 4 5 6 3 2 8 4 9 5 4 3 5 3 1 2 5
3 3 3 3 2 6 4 2 3 6 4 2 3 0 1 3 2 3 2 1 5 2 13 8 4 6 8 3 6 6 7 11 10 6 16 14 23 6 2 3 5 6 4 5 7
3 1 2 2 0 3 2 3 2 3 0 1 1 2 2 2 2 1 2 2 3 4 3 2 4 5 15 6 1 5 8 13 16 22 14 22 21 22 14 12 7 9 5 9 10
4 4 2 2 1 3 4 1 3 2 4 2 3 1 5 4 3 3 2 4 3 1 2 2 3 5 6 8 9 13 7 13 21 22 17 27 25 16 13 7 8 10 11 12 12
3 3 4 3 2 3 2 3 2 3 2 3 3 2 1 6 5 6 5 4 3 3 2 3 1 2 4 2 6 6 22 24 17 15 19 19 30 14 18 12 17 12 9 15 16